Valdosta, GA

9:24 PM EDT on August 30, 2016 (GMT -0400)
Moody Air Force Base

Weather History for KVAD - August, 2013

Change the Weather History Date:

Thursday, August 22, 2013

  Actual Average Record
Temperature  
Mean Temperature 76 °F -  
Max Temperature 81 °F 88 °F 98 °F (2007)
Min Temperature 71 °F 71 °F 68 °F (1997)
Cooling Degree Days 10    
Growing Degree Days 26 (Base 50)    
Moisture  
Dew Point 74 °F    
Average Humidity 98    
Maximum Humidity 100    
Minimum Humidity 74    
Precipitation  
Precipitation 0.09 in - - ()
Sea Level Pressure  
Sea Level Pressure 30.12 in    
Wind  
Wind Speed 4 mph (NE)    
Max Wind Speed 16 mph    
Max Gust Speed 26 mph    
Visibility 4 miles    
Events Fog , Rain , Thunderstorm    
Averages and records for this station are not official NWS values.
T = Trace of Precipitation, MM = Missing Value Source: NWS Daily Summary

Daily Weather History Graph

Daily Weather History Graph

Search for Another Location

Airport or City:

Trip Planner

Search our weather history database for the weather conditions in past years. The results will help you decide how hot, cold, wet, or windy it might be!

Date:

Astronomy

Aug. 22, 2013 Rise Set
Actual Time 7:03 AM EDT 8:07 PM EDT
Civil Twilight 6:38 AM EDT 8:32 PM EDT
Nautical Twilight 6:08 AM EDT 9:02 PM EDT
Astronomical Twilight 5:37 AM EDT 9:32 PM EDT
Moon 9:04 PM EDT (8/22) 8:39 AM EDT (8/22)
Length of Visible Light 13h 54m
Length of Day
13h 04m
Waning Gibbous, 97% of the Moon is Illuminated
Aug 22
Waning Gibbous
Aug 28
Last Quarter
Sep 5
New
Sep 12
First Quarter
Sep 19
Full

Hourly Weather History & Observations

Time (EDT) Temp. Dew Point Humidity Pressure Visibility Wind Dir Wind Speed Gust Speed Precip Events Conditions
12:58 AM 73.4 °F 73.0 °F 99% 30.14 in 10.0 mi ENE 4.6 mph - N/A   Clear
1:58 AM 73.4 °F 73.0 °F 99% 30.13 in 10.0 mi ESE 4.6 mph - N/A   Clear
2:17 AM 73.4 °F 73.4 °F 100% 30.12 in 10.0 mi ESE 4.6 mph - N/A   Partly Cloudy
2:23 AM 73.4 °F 73.4 °F 100% 30.12 in 8.0 mi East 3.5 mph - N/A   Scattered Clouds
2:25 AM 73.4 °F 73.4 °F 100% 30.12 in 5.0 mi East 3.5 mph - N/A   Scattered Clouds
2:27 AM 73.4 °F 73.4 °F 100% 30.12 in 4.0 mi East 3.5 mph - N/A   Mostly Cloudy
2:28 AM 73.4 °F 73.4 °F 100% 30.12 in 3.0 mi East 3.5 mph - N/A Rain Light Rain
2:30 AM 73.4 °F 73.4 °F 100% 30.12 in 2.5 mi ESE 3.5 mph - N/A Rain Light Rain
2:32 AM 73.4 °F 73.4 °F 100% 30.12 in 1.8 mi ESE 3.5 mph - N/A Rain Light Rain
2:34 AM 73.4 °F 73.4 °F 100% 30.12 in 1.2 mi East 3.5 mph - N/A Rain Light Rain
2:37 AM 73.4 °F 73.4 °F 100% 30.12 in 1.0 mi East 3.5 mph - N/A   Mist
2:43 AM 73.4 °F 73.4 °F 100% 30.12 in 0.8 mi Calm Calm - N/A   Mist
2:45 AM 73.4 °F 73.4 °F 100% 30.12 in 0.8 mi Calm Calm - N/A Rain Light Rain
2:51 AM 73.4 °F 73.4 °F 100% 30.12 in 0.5 mi NNE 2.3 mph - N/A Fog , Rain Light Rain
2:53 AM 73.4 °F 73.4 °F 100% 30.12 in 0.5 mi North 2.3 mph - N/A Fog Fog
2:58 AM 73.6 °F 73.4 °F 99% 30.12 in 0.5 mi North 3.5 mph - 0.00 in Fog Fog
3:00 AM 73.4 °F 73.4 °F 100% 30.12 in 0.8 mi North 3.5 mph - N/A   Mist
3:02 AM 73.4 °F 73.4 °F 100% 30.12 in 0.8 mi North 4.6 mph - N/A   Mist
3:12 AM 73.4 °F 73.4 °F 100% 30.13 in 0.5 mi NNE 4.6 mph - N/A Fog Fog
3:24 AM 73.4 °F 73.4 °F 100% 30.12 in 0.5 mi NNE 4.6 mph - N/A Fog Fog
3:28 AM 73.4 °F 73.4 °F 100% 30.12 in 0.2 mi NNE 4.6 mph - N/A Fog Fog
3:36 AM 73.4 °F 73.4 °F 100% 30.12 in 0.5 mi NE 3.5 mph - N/A Fog Fog
3:58 AM 73.4 °F 73.4 °F 100% 30.12 in 0.5 mi Calm Calm - N/A Fog Fog
4:18 AM 73.4 °F 73.4 °F 100% 30.11 in 0.5 mi Calm Calm - N/A Fog Fog
4:24 AM 73.4 °F 73.4 °F 100% 30.11 in 0.5 mi NNE 2.3 mph - N/A Fog Fog
4:52 AM 73.4 °F 73.4 °F 100% 30.10 in 0.8 mi North 3.5 mph - N/A   Mist
4:56 AM 73.4 °F 73.4 °F 100% 30.10 in 1.0 mi North 3.5 mph - N/A   Mist
4:57 AM 73.4 °F 73.4 °F 100% 30.10 in 1.0 mi North 3.5 mph - N/A Rain Light Rain
4:58 AM 73.4 °F 73.4 °F 100% 30.10 in 1.0 mi North 3.5 mph - N/A Rain Light Rain
5:00 AM 73.4 °F 73.4 °F 100% 30.10 in 1.2 mi North 3.5 mph - N/A Rain Light Rain
5:04 AM 73.4 °F 73.4 °F 100% 30.10 in 1.2 mi North 2.3 mph - N/A Rain Light Rain
5:06 AM 73.4 °F 73.4 °F 100% 30.10 in 1.5 mi NNE 2.3 mph - N/A Rain Light Rain
5:07 AM 73.4 °F 73.4 °F 100% 30.10 in 1.8 mi NE 2.3 mph - N/A   Overcast
5:11 AM 73.4 °F 73.4 °F 100% 30.10 in 2.0 mi NNE 3.5 mph - N/A   Overcast
5:15 AM 73.4 °F 73.4 °F 100% 30.10 in 3.0 mi NNE 4.6 mph - N/A   Mostly Cloudy
5:21 AM 73.4 °F 73.4 °F 100% 30.11 in 5.0 mi NNE 4.6 mph - N/A   Mostly Cloudy
5:25 AM 73.4 °F 73.4 °F 100% 30.11 in 8.0 mi NNE 4.6 mph - N/A   Overcast
5:58 AM 73.4 °F 73.4 °F 100% 30.12 in 9.0 mi NNE 6.9 mph - 0.00 in   Overcast
6:14 AM 73.4 °F 73.4 °F 100% 30.11 in 10.0 mi NNE 6.9 mph - N/A   Overcast
6:28 AM 75.2 °F 75.2 °F 100% 30.11 in 10.0 mi NNE 5.8 mph - N/A   Overcast
6:44 AM 75.2 °F 75.2 °F 100% 30.11 in 10.0 mi NE 8.1 mph - N/A   Overcast
6:52 AM 75.2 °F 75.2 °F 100% 30.12 in 7.0 mi NNE 6.9 mph - N/A   Overcast
6:54 AM 75.2 °F 75.2 °F 100% 30.12 in 6.0 mi NNE 6.9 mph - N/A   Overcast
6:58 AM 75.2 °F 75.2 °F 100% 30.12 in 4.0 mi NNE 5.8 mph - N/A   Overcast
7:04 AM 75.2 °F 75.2 °F 100% 30.12 in 2.5 mi NNE 6.9 mph - N/A   Overcast
7:12 AM 75.2 °F 75.2 °F 100% 30.12 in 1.8 mi NE 5.8 mph - N/A   Overcast
7:16 AM 75.2 °F 75.2 °F 100% 30.12 in 1.2 mi NNE 5.8 mph - N/A   Overcast
7:20 AM 75.2 °F 75.2 °F 100% 30.12 in 1.0 mi NNE 6.9 mph - N/A   Overcast
7:22 AM 75.2 °F 75.2 °F 100% 30.12 in 0.8 mi NE 5.8 mph - N/A   Overcast
7:26 AM 75.2 °F 75.2 °F 100% 30.12 in 0.8 mi NE 5.8 mph - N/A   Mist
7:36 AM 75.2 °F 75.2 °F 100% 30.12 in 0.5 mi NE 6.9 mph - N/A Fog Fog
7:38 AM 75.2 °F 75.2 °F 100% 30.12 in 0.5 mi NE 6.9 mph - N/A Fog , Rain Light Rain
7:46 AM 75.2 °F 75.2 °F 100% 30.12 in 0.8 mi NE 5.8 mph - N/A Rain Light Rain
7:48 AM 75.2 °F 75.2 °F 100% 30.12 in 0.8 mi NE 5.8 mph - N/A Rain Light Rain
7:52 AM 75.2 °F 75.2 °F 100% 30.13 in 1.0 mi NE 4.6 mph - N/A Rain Light Rain
7:53 AM 75.2 °F 75.2 °F 100% 30.13 in 1.0 mi NE 4.6 mph - N/A   Mist
7:55 AM 75.2 °F 75.2 °F 100% 30.13 in 1.0 mi NE 5.8 mph - N/A   Mist
7:57 AM 75.2 °F 75.2 °F 100% 30.13 in 1.2 mi NE 5.8 mph - N/A   Overcast
7:58 AM 75.2 °F 75.2 °F 100% 30.13 in 1.2 mi NE 5.8 mph - 0.01 in   Overcast
8:04 AM 75.2 °F 75.2 °F 100% 30.13 in 1.0 mi NE 8.1 mph - N/A   Mist
8:06 AM 75.2 °F 75.2 °F 100% 30.13 in 1.0 mi NE 6.9 mph - N/A   Mist
8:10 AM 75.2 °F 75.2 °F 100% 30.13 in 1.0 mi NE 6.9 mph - N/A   Mist
8:12 AM 75.2 °F 75.2 °F 100% 30.13 in 0.8 mi NE 6.9 mph - N/A   Mist
8:16 AM 75.2 °F 75.2 °F 100% 30.13 in 0.8 mi NE 8.1 mph - N/A   Mist
8:20 AM 75.2 °F 75.2 °F 100% 30.13 in 0.5 mi NE 6.9 mph - N/A Fog Fog
8:40 AM 75.2 °F 75.2 °F 100% 30.12 in 0.8 mi ENE 6.9 mph - N/A   Mist
8:46 AM 75.2 °F 75.2 °F 100% 30.12 in 0.8 mi ENE 5.8 mph - N/A   Mist
8:48 AM 75.2 °F 75.2 °F 100% 30.12 in 1.0 mi ENE 5.8 mph - N/A   Mist
8:50 AM 75.2 °F 75.2 °F 100% 30.12 in 1.0 mi ENE 5.8 mph - N/A   Mist
8:52 AM 75.2 °F 75.2 °F 100% 30.12 in 1.2 mi ENE 4.6 mph - N/A   Overcast
8:54 AM 75.2 °F 75.2 °F 100% 30.13 in 1.8 mi NE 4.6 mph - N/A   Overcast
8:56 AM 75.2 °F 75.2 °F 100% 30.12 in 2.5 mi ENE 4.6 mph - N/A   Overcast
8:58 AM 75.2 °F 75.2 °F 100% 30.13 in 3.0 mi ENE 5.8 mph - N/A   Overcast
9:32 AM 77.0 °F 77.0 °F 100% 30.14 in 10.0 mi East 3.5 mph - N/A   Overcast
9:58 AM 78.1 °F 78.1 °F 100% 30.17 in 10.0 mi East 8.1 mph - N/A Thunderstorm Overcast
10:02 AM 78.8 °F 78.8 °F 100% 30.16 in 10.0 mi ESE 4.6 mph - N/A Thunderstorm Overcast
10:16 AM 78.8 °F 78.8 °F 100% 30.16 in 10.0 mi East 4.6 mph - N/A   Mostly Cloudy
10:20 AM 78.8 °F 78.8 °F 100% 30.16 in 10.0 mi ESE 6.9 mph - N/A   Mostly Cloudy
10:24 AM 78.8 °F 78.8 °F 100% 30.16 in 10.0 mi ESE 5.8 mph - N/A   Mostly Cloudy
10:26 AM 78.8 °F 78.8 °F 100% 30.16 in 10.0 mi ESE 8.1 mph - N/A   Mostly Cloudy
10:34 AM 78.8 °F 78.8 °F 100% 30.16 in 10.0 mi SSE 16.1 mph 26.5 mph N/A Rain Light Rain
10:53 AM 73.4 °F 73.4 °F 100% 30.17 in 10.0 mi South 8.1 mph - N/A Thunderstorm Scattered Clouds
10:58 AM 73.2 °F 72.9 °F 99% 30.17 in 10.0 mi SSW 6.9 mph - 0.07 in Thunderstorm Scattered Clouds
11:25 AM 73.4 °F 71.6 °F 94% 30.17 in 10.0 mi South 3.5 mph - N/A Rain , Thunderstorm Light Rain
11:58 AM 73.2 °F 70.9 °F 92% 30.15 in 10.0 mi WNW 1.2 mph - 0.01 in Rain Light Rain
12:22 PM 75.2 °F 69.8 °F 83% 30.14 in 10.0 mi SE 3.5 mph - N/A   Partly Cloudy
12:58 PM 75.4 °F 70.7 °F 85% 30.12 in 10.0 mi East 5.8 mph - 0.00 in   Scattered Clouds
1:58 PM 79.5 °F 70.7 °F 74% 30.12 in 10.0 mi SW 6.9 mph - N/A   Mostly Cloudy
2:58 PM 79.3 °F 70.9 °F 75% 30.12 in 10.0 mi SW 11.5 mph - N/A   Mostly Cloudy
3:58 PM 79.7 °F 71.6 °F 76% 30.12 in 10.0 mi WSW 6.9 mph - N/A   Mostly Cloudy
4:40 PM 78.8 °F 71.6 °F 78% 30.11 in 10.0 mi East 4.6 mph - N/A Rain Light Rain
4:58 PM 78.6 °F 71.8 °F 79% 30.09 in 10.0 mi East 4.6 mph - 0.00 in Rain Light Rain
5:03 PM 78.8 °F 71.6 °F 78% 30.09 in 10.0 mi East 4.6 mph - N/A   Scattered Clouds
5:58 PM 77.4 °F 72.7 °F 85% 30.04 in 10.0 mi NE 6.9 mph - 0.00 in   Scattered Clouds
6:58 PM 76.5 °F 72.5 °F 87% 30.03 in 10.0 mi SE 4.6 mph - N/A   Clear
7:58 PM 76.1 °F 72.3 °F 88% 30.06 in 10.0 mi ENE 2.3 mph - N/A   Clear
8:58 PM 74.3 °F 72.9 °F 95% 30.05 in 10.0 mi NNW 3.5 mph - N/A   Clear
9:58 PM 73.2 °F 72.9 °F 99% 30.07 in 10.0 mi NE 3.5 mph - N/A   Scattered Clouds
10:58 PM 72.3 °F 72.0 °F 99% 30.09 in 10.0 mi NNE 3.5 mph - N/A   Clear
11:58 PM 71.8 °F 71.4 °F 99% 30.09 in 10.0 mi Calm Calm - N/A   Clear